Location: Alston School (historical)
(35.5076°N, 89.8251°W)
Time: 22:53:34
(UTC+00:00)

USA 267 - Visible Passes

Search period start: 13 March 2026 00:00
Search period end: 23 March 2026 00:00
Orbit: 1101 x 1107 km, 123.0° (Epoch: 10 January)

Date Brightness Start Highest point End Pass type
(mag) Time Alt. Az. Time Alt. Az. Time Alt. Az.
13 Mar 3.9 01:03:46 10° ENE 01:09:29 34° SE 01:15:16 10° S visible
13 Mar 3.6 02:51:10 49° N 02:52:36 59° NW 02:58:58 10° WSW visible
13 Mar 5.7 04:38:33 12° WNW 04:38:33 12° WNW 04:39:13 10° WNW visible
13 Mar 5.5 07:53:00 10° NE 07:56:37 17° NNE 07:56:37 17° NNE visible
13 Mar 4.3 09:32:34 10° ESE 09:38:38 42° NE 09:44:02 13° NNW visible
13 Mar 3.4 11:15:07 10° SSE 11:21:28 52° SW 11:27:51 10° NW visible
14 Mar 3.1 02:07:17 39° ENE 02:09:55 73° SE 02:16:25 10° SW visible
14 Mar 4.9 03:54:42 27° WNW 03:54:42 27° WNW 03:58:10 10° W visible
14 Mar 5.9 07:12:23 10° NNE 07:12:51 11° NNE 07:12:51 11° NNE visible
14 Mar 5.0 08:51:14 10° E 08:56:22 25° NNE 09:00:14 15° NNW visible
14 Mar 3.3 10:32:07 10° SE 10:38:40 79° NE 10:45:14 10° NW visible
15 Mar 3.8 01:23:31 21° ENE 01:26:58 34° SE 01:32:47 10° S visible
15 Mar 3.8 03:10:55 55° WNW 03:10:55 55° WNW 03:16:28 10° WSW visible
15 Mar 5.5 08:10:29 10° NE 08:14:20 17° NNE 08:16:21 15° N visible
15 Mar 4.3 09:50:03 10° ESE 09:56:07 42° NE 10:02:12 10° NNW visible
15 Mar 3.5 11:32:38 10° SSE 11:38:58 52° SW 11:45:21 10° NW visible
16 Mar 4.7 00:40:34 10° E 00:43:50 14° ESE 00:47:04 10° SSE visible
16 Mar 3.1 02:27:13 73° ESE 02:27:24 73° SE 02:33:55 10° SW visible
16 Mar 5.5 04:14:37 15° W 04:14:37 15° W 04:15:40 10° W visible
16 Mar 5.7 07:29:51 10° NNE 07:32:23 13° N 07:32:23 13° N visible
16 Mar 5.1 09:08:43 10° E 09:13:51 25° NNE 09:18:58 10° NNW visible
16 Mar 3.4 10:49:36 10° SE 10:56:09 79° NE 11:02:43 10° NW visible
17 Mar 3.8 01:43:34 33° ESE 01:44:28 34° SE 01:50:17 10° S visible
17 Mar 4.7 03:31:00 28° WSW 03:31:00 28° WSW 03:33:57 10° WSW visible
17 Mar 5.5 08:27:57 10° NE 08:31:50 17° NNE 08:35:42 10° NNW visible
17 Mar 4.3 10:07:31 10° ESE 10:13:37 42° NE 10:19:42 10° NNW visible
18 Mar 4.7 01:00:00 14° ESE 01:01:19 14° ESE 01:04:37 10° SSE visible
18 Mar 4.0 02:47:25 40° SSW 02:47:25 40° SSW 02:51:25 10° SW visible
18 Mar 5.7 07:47:20 10° NNE 07:50:00 13° N 07:51:33 12° N visible
18 Mar 5.1 09:26:11 10° E 09:31:20 25° NNE 09:36:28 10° NNW visible
18 Mar 3.4 11:07:06 10° SE 11:13:39 80° NE 11:20:13 10° NW visible
19 Mar 4.1 02:03:52 29° SSE 02:03:52 29° SSE 02:07:48 10° S visible
19 Mar 5.6 03:51:18 11° WSW 03:51:18 11° WSW 03:51:27 10° WSW visible
19 Mar 5.8 07:05:57 10° NNE 07:07:20 12° N 07:07:20 12° N visible
19 Mar 5.5 08:45:25 10° NE 08:49:19 17° NNE 08:53:12 10° NNW visible
19 Mar 4.3 10:25:01 10° ESE 10:31:06 43° NE 10:37:12 10° NNW visible
20 Mar 4.8 01:20:20 13° SE 01:20:20 13° SE 01:22:09 10° SSE visible
20 Mar 5.2 03:07:46 16° SW 03:07:46 16° SW 03:08:54 10° SW visible
20 Mar 5.7 08:04:48 10° NNE 08:07:30 13° N 08:10:10 10° NNW visible
20 Mar 5.1 09:43:40 10° E 09:48:49 25° NNE 09:53:58 10° NNW visible
20 Mar 3.5 11:24:35 10° SE 11:31:08 80° NE 11:37:42 10° NW visible
21 Mar 5.0 02:24:13 15° S 02:24:13 15° S 02:25:18 10° S visible
21 Mar 5.7 07:23:26 10° NNE 07:25:45 12° N 07:26:05 12° N visible
21 Mar 5.5 09:02:54 10° NE 09:06:48 17° NNE 09:10:42 10° NNW visible
21 Mar 4.4 10:42:29 10° ESE 10:48:35 43° NE 10:54:42 10° NNW visible
22 Mar 5.8 06:40:47 10° NNE 06:41:42 12° N 06:41:42 12° N visible
22 Mar 5.7 08:22:17 10° NNE 08:24:58 13° N 08:27:40 10° NNW visible
22 Mar 5.1 10:01:08 10° E 10:06:18 26° NNE 10:11:28 10° NNW visible
